• en Belgique
  • Liste des pays
  • À 7 jours
  • Température de l'eau
  • Carte satellitaire
  • Carte météo
  • Widgets météo
  • user-avatar
    Se connecter

    Météo par heure à Djelfa

    Ce jour, 19 Septembre, Mercredi

    Heure Température Précipitation Vent Pression Humidité
    00:00 +23°C° 0 mm 2 m/s 669 mmHg 51%
    01:00 +23°C° 0 mm 2 m/s 668 mmHg 52%
    02:00 +23°C° 0 mm 2 m/s 668 mmHg 53%
    03:00 +21°C° 0 mm 2 m/s 668 mmHg 54%
    04:00 +21°C° 0 mm 2 m/s 668 mmHg 55%
    05:00 +21°C° 0 mm 2 m/s 668 mmHg 56%
    06:00 +22°C° 0 mm 1 m/s 668 mmHg 58%
    07:00 +23°C° 0.1 mm 2 m/s 669 mmHg 53%
    08:00 +24°C° 0.1 mm 3 m/s 669 mmHg 49%
    09:00 +26°C° 0.1 mm 3 m/s 669 mmHg 44%
    10:00 +26°C° 0 mm 3 m/s 669 mmHg 42%
    11:00 +26°C° 0 mm 3 m/s 669 mmHg 41%
    12:00 +27°C° 0 mm 3 m/s 669 mmHg 39%
    13:00 +27°C° 0 mm 3 m/s 669 mmHg 37%
    14:00 +27°C° 0 mm 2 m/s 669 mmHg 36%
    15:00 +28°C° 0 mm 2 m/s 668 mmHg 34%
    16:00 +27°C° 0.1 mm 2 m/s 668 mmHg 36%
    17:00 +27°C° 0.1 mm 2 m/s 668 mmHg 38%
    18:00 +26°C° 0.1 mm 2 m/s 668 mmHg 40%
    19:00 +25°C° 0.4 mm 3 m/s 668 mmHg 45%
    20:00 +25°C° 0.4 mm 4 m/s 669 mmHg 50%
    21:00 +23°C° 0.4 mm 4 m/s 669 mmHg 54%
    22:00 +22°C° 0.6 mm 4 m/s 669 mmHg 56%
    23:00 +22°C° 0.6 mm 3 m/s 668 mmHg 58%

    Demain, 20 Septembre, Jeudi

    Heure Température Précipitation Vent Pression Humidité
    00:00 +21°C° 0.6 mm 2 m/s 668 mmHg 60%
    01:00 +21°C° 0.2 mm 2 m/s 668 mmHg 61%
    02:00 +21°C° 0.2 mm 2 m/s 668 mmHg 61%
    03:00 +22°C° 0.2 mm 1 m/s 667 mmHg 62%
    04:00 +21°C° 0 mm 1 m/s 667 mmHg 62%
    05:00 +20°C° 0 mm 2 m/s 667 mmHg 63%
    06:00 +20°C° 0 mm 2 m/s 667 mmHg 64%
    07:00 +21°C° 0 mm 2 m/s 667 mmHg 59%
    08:00 +22°C° 0 mm 3 m/s 668 mmHg 55%
    09:00 +24°C° 0 mm 3 m/s 668 mmHg 51%
    10:00 +25°C° 0 mm 3 m/s 668 mmHg 46%
    11:00 +26°C° 0 mm 4 m/s 668 mmHg 40%
    12:00 +27°C° 0 mm 4 m/s 668 mmHg 34%
    13:00 +27°C° 0 mm 4 m/s 668 mmHg 33%
    14:00 +28°C° 0 mm 4 m/s 668 mmHg 31%
    15:00 +28°C° 0 mm 4 m/s 667 mmHg 29%
    16:00 +27°C° 0 mm 4 m/s 667 mmHg 32%
    17:00 +27°C° 0 mm 4 m/s 667 mmHg 34%
    18:00 +26°C° 0 mm 4 m/s 667 mmHg 36%
    19:00 +25°C° 0 mm 4 m/s 667 mmHg 40%
    20:00 +25°C° 0 mm 4 m/s 667 mmHg 44%
    21:00 +24°C° 0 mm 3 m/s 667 mmHg 48%
    22:00 +22°C° 0 mm 3 m/s 667 mmHg 52%
    23:00 +22°C° 0 mm 3 m/s 667 mmHg 57%

    Après-demain, 21 Septembre, Vendredi

    Heure Température Précipitation Vent Pression Humidité
    00:00 +21°C° 0 mm 2 m/s 667 mmHg 62%
    01:00 +21°C° 0 mm 2 m/s 666 mmHg 65%
    02:00 +20°C° 0 mm 2 m/s 666 mmHg 69%
    03:00 +21°C° 0 mm 1 m/s 666 mmHg 72%
    04:00 +19°C° 0 mm 2 m/s 666 mmHg 74%
    05:00 +19°C° 0 mm 2 m/s 666 mmHg 76%
    06:00 +19°C° 0 mm 2 m/s 666 mmHg 78%
    07:00 +20°C° 0 mm 3 m/s 666 mmHg 72%
    08:00 +21°C° 0 mm 3 m/s 667 mmHg 65%
    09:00 +21°C° 0 mm 4 m/s 667 mmHg 59%
    10:00 +22°C° 0 mm 4 m/s 668 mmHg 52%
    11:00 +24°C° 0 mm 3 m/s 668 mmHg 46%
    12:00 +25°C° 0 mm 3 m/s 668 mmHg 39%
    13:00 +26°C° 0 mm 3 m/s 668 mmHg 36%
    14:00 +26°C° 0 mm 4 m/s 667 mmHg 33%
    15:00 +27°C° 0 mm 4 m/s 667 mmHg 29%
    16:00 +26°C° 0 mm 4 m/s 667 mmHg 30%
    17:00 +26°C° 0 mm 3 m/s 667 mmHg 30%
    18:00 +26°C° 0 mm 3 m/s 667 mmHg 30%
    19:00 +25°C° 0 mm 3 m/s 668 mmHg 33%
    20:00 +24°C° 0 mm 3 m/s 668 mmHg 36%
    21:00 +24°C° 0 mm 3 m/s 668 mmHg 39%
    22:00 +22°C° 0 mm 3 m/s 668 mmHg 44%
    23:00 +21°C° 0 mm 3 m/s 668 mmHg 49%

    22 Septembre, Samedi

    Heure Température Précipitation Vent Pression Humidité
    00:00 +21°C° 0 mm 2 m/s 668 mmHg 54%
    01:00 +20°C° 0 mm 2 m/s 668 mmHg 58%
    02:00 +20°C° 0 mm 2 m/s 668 mmHg 61%
    03:00 +19°C° 0 mm 2 m/s 667 mmHg 65%
    04:00 +19°C° 0 mm 2 m/s 668 mmHg 66%
    05:00 +19°C° 0 mm 2 m/s 668 mmHg 67%
    06:00 +19°C° 0 mm 1 m/s 668 mmHg 69%
    07:00 +19°C° 0 mm 2 m/s 668 mmHg 60%
    08:00 +21°C° 0 mm 2 m/s 669 mmHg 52%
    09:00 +22°C° 0 mm 3 m/s 670 mmHg 43%
    10:00 +24°C° 0 mm 3 m/s 670 mmHg 38%
    11:00 +25°C° 0 mm 3 m/s 670 mmHg 33%
    12:00 +26°C° 0 mm 2 m/s 670 mmHg 28%
    13:00 +26°C° 0 mm 3 m/s 670 mmHg 27%
    14:00 +27°C° 0 mm 3 m/s 670 mmHg 25%
    15:00 +27°C° 0 mm 3 m/s 669 mmHg 24%
    16:00 +27°C° 0 mm 3 m/s 669 mmHg 25%
    17:00 +26°C° 0 mm 3 m/s 670 mmHg 27%
    18:00 +26°C° 0 mm 3 m/s 670 mmHg 28%
    19:00 +25°C° 0 mm 3 m/s 670 mmHg 31%
    20:00 +25°C° 0 mm 2 m/s 670 mmHg 34%
    21:00 +24°C° 0 mm 2 m/s 670 mmHg 36%
    22:00 +23°C° 0 mm 2 m/s 670 mmHg 38%
    23:00 +23°C° 0 mm 1 m/s 670 mmHg 40%

    23 Septembre, Dimanche

    Heure Température Précipitation Vent Pression Humidité
    00:00 +22°C° 0 mm 1 m/s 670 mmHg 42%
    01:00 +22°C° 0 mm 1 m/s 669 mmHg 44%
    02:00 +22°C° 0 mm 1 m/s 669 mmHg 46%
    03:00 +20°C° 0 mm 2 m/s 669 mmHg 47%
    04:00 +20°C° 0 mm 2 m/s 669 mmHg 49%
    05:00 +21°C° 0 mm 1 m/s 669 mmHg 51%
    06:00 +20°C° 0 mm 1 m/s 669 mmHg 53%
    07:00 +21°C° 0 mm 2 m/s 669 mmHg 50%
    08:00 +23°C° 0 mm 2 m/s 670 mmHg 47%
    09:00 +24°C° 0 mm 2 m/s 670 mmHg 43%
    10:00 +25°C° 0 mm 2 m/s 670 mmHg 40%
    11:00 +26°C° 0 mm 2 m/s 670 mmHg 36%
    12:00 +27°C° 0 mm 1 m/s 670 mmHg 32%
    13:00 +27°C° 0 mm 1 m/s 670 mmHg 30%
    14:00 +28°C° 0 mm 1 m/s 669 mmHg 28%
    15:00 +28°C° 0 mm 1 m/s 669 mmHg 25%
    16:00 +28°C° 0 mm 1 m/s 669 mmHg 26%
    17:00 +27°C° 0 mm 1 m/s 669 mmHg 27%
    18:00 +27°C° 0 mm 1 m/s 669 mmHg 27%
    19:00 +26°C° 0 mm 2 m/s 669 mmHg 29%
    20:00 +26°C° 0 mm 2 m/s 669 mmHg 31%
    21:00 +25°C° 0 mm 2 m/s 669 mmHg 32%
    22:00 +25°C° 0 mm 2 m/s 669 mmHg 34%
    23:00 +24°C° 0 mm 2 m/s 668 mmHg 35%

    24 Septembre, Lundi

    Heure Température Précipitation Vent Pression Humidité
    00:00 +24°C° 0 mm 1 m/s 668 mmHg 37%
    01:00 +23°C° 0 mm 1 m/s 667 mmHg 38%
    02:00 +23°C° 0 mm 1 m/s 667 mmHg 40%
    03:00 +22°C° 0 mm 1 m/s 667 mmHg 41%
    04:00 +21°C° 0 mm 2 m/s 667 mmHg 42%
    05:00 +21°C° 0 mm 2 m/s 667 mmHg 43%
    06:00 +20°C° 0 mm 2 m/s 667 mmHg 44%
    07:00 +23°C° 0 mm 2 m/s 667 mmHg 39%
    08:00 +25°C° 0 mm 3 m/s 668 mmHg 34%
    09:00 +26°C° 0 mm 3 m/s 669 mmHg 29%
    10:00 +27°C° 0 mm 3 m/s 669 mmHg 26%
    11:00 +28°C° 0 mm 3 m/s 669 mmHg 24%
    12:00 +29°C° 0 mm 3 m/s 668 mmHg 21%
    13:00 +29°C° 0 mm 3 m/s 668 mmHg 20%
    14:00 +29°C° 0 mm 4 m/s 668 mmHg 19%
    15:00 +29°C° 0 mm 4 m/s 667 mmHg 18%
    16:00 +29°C° 0 mm 4 m/s 667 mmHg 19%
    17:00 +28°C° 0 mm 4 m/s 667 mmHg 21%
    18:00 +27°C° 0 mm 4 m/s 667 mmHg 22%
    19:00 +26°C° 0 mm 4 m/s 667 mmHg 29%
    20:00 +25°C° 0 mm 4 m/s 668 mmHg 36%
    21:00 +23°C° 0 mm 4 m/s 668 mmHg 42%
    22:00 +22°C° 0 mm 4 m/s 668 mmHg 52%
    23:00 +21°C° 0 mm 4 m/s 667 mmHg 61%
    Voir plus